Tracking 25709 objects as of 23-May-2022
HD Live streaming from Space Station
objects crossing your sky now

LEMUR 2 LILLYJO

Track LEMUR 2 LILLYJO now!
10-day predictions
LEMUR 2 LILLYJO is classified as:


NORAD ID: 44396
Int'l Code: 2019-038L
Perigee: 503.2 km
Apogee: 531.4 km
Inclination: 97.6 °
Period: 94.8 minutes
Semi major axis: 6888 km
RCS: Unknown
Launch date: July 5, 2019
Source: United States (US)
Launch site: VOSTOCHNY COSMODROME (VOSTO)
aabbcc
Your satellite tracking list
Your tracking list is empty




NASA's NSSDC Master Catalog

Two Line Element Set (TLE):
1 44396U 19038L   22142.88248470  .00019499  00000-0  93998-3 0  9992
2 44396  97.6182 112.1025 0020416 207.8995 152.1146 15.18573114159197
Source of the keplerian elements: AFSPC